User: anonymous   Login
Location: Oshawa
(43.9000°N, 78.8670°W)
Time: 11:31:38
(UTC-05:00)
Language:

Thor Agena Rocket - Orbit

View from above orbital plane
View from above orbital plane
View from above satellite
View from above satellite

Ground track
Ground track

The orbit data is extracted from the following two-line orbital elements,

1 00733U 64002A   14325.98754853  .00000301  00000-0  12907-3 0  3876
2 00733 099.0241 091.5432 0034178 027.0217 083.1664 14.31955096648027
Epoch (UTC): 21 November 2014 23:42:04
Eccentricity: 0.0034178
inclination: 99.0241°
perigee height: 761 km
apogee height: 809 km
right ascension of ascending node: 91.5432°
argument of perigee: 27.0217°
revolutions per day: 14.31955096
mean anomaly at epoch: 83.1664°
orbit number at epoch: 64802

The dashed part of the orbit path shows where the satellite is in the earth's shadow,  

DLR